Regional Weather Roundup
Issued by NWS

Home | Current Version | Previous Version | Text Only | Print | Product List | Glossary Off
Versions: 1 2 3 4 5 6 7 8 9 10 11 12 13 14 15 16 17 18 19 20 21 22 23 24 25 26 27 28 29 30 31 32 33 34 35 36 37 38 39 40 41 42 43 44 45 46 47 48 49 50

000
ASUS43 KMKX 180811
RWRWI

WISCONSIN REGIONAL WEATHER ROUNDUP
NATIONAL WEATHER SERVICE MILWAUKEE/SULLIVAN WI
200 AM CST THU DEC 18 2014

NOTE: "FAIR" INDICATES FEW OR NO CLOUDS BELOW 12,000 FEET WITH NO
SIGNIFICANT WEATHER AND/OR OBSTRUCTIONS TO VISIBILITY.

WIZ001-002-006>008-014>016-023>028-180900-
NORTHWEST WISCONSIN

CITY           SKY/WX    TMP DP  RH WIND       PRES   REMARKS
SUPERIOR ARPT  CLOUDY    20  17  88 CALM      30.35R
ASHLAND        CLOUDY    23  21  92 CALM      30.33R
HAYWARD        CLOUDY    20  15  81 CALM      30.29F
SIREN          CLOUDY    17  14  87 CALM      30.32S
CUMBERLAND     CLOUDY    19  16  86 CALM      30.29R
RICE LAKE      CLOUDY    21  17  83 N3        30.31R
CHETEK         CLOUDY    20  16  83 CALM      30.30S
LADYSMITH      CLOUDY    22  19  87 N5        30.29S WCI  15
EAU CLAIRE     CLOUDY    20  14  77 CALM      30.29F
MENOMONIE      CLOUDY    20  16  81 CALM      30.31F
NEW RICHMOND   CLOUDY    18  16  90 CALM      30.31F
OSCEOLA        CLOUDY    17  14  88 CALM      30.35S
$$

WIZ003>005-009-010-017-018-180900-
NORTH CENTRAL WISCONSIN

CITY           SKY/WX    TMP DP  RH WIND       PRES   REMARKS
MANITOWISH WTR CLOUDY    21  19  92 NE6       30.25R WCI  13
ARBOR VITAE    CLOUDY    23  20  89 CALM      30.24R
WOODRUFF       CLOUDY    23  20  89 CALM      30.24R
RHINELANDER    CLOUDY    21  18  88 CALM      30.24R
EAGLE RIVER    CLOUDY    21  19  93 NE5       30.24R WCI  15
LAND O LAKES   CLOUDY    21  19  93 N7        30.24R WCI  12
PHILLIPS       CLOUDY    20  18  89 NE3       30.26R
TOMAHAWK       CLOUDY    22  19  88 CALM      30.26R
MEDFORD        CLOUDY    22  19  88 N7        30.24S WCI  13
MERRILL        CLOUDY    23  20  89 CALM      30.26R
$$

WIZ029-030-035-036-043>047-180900-
CENTRAL WISCONSIN

CITY           SKY/WX    TMP DP  RH WIND       PRES   REMARKS
WAUSAU         CLOUDY    24  19  81 N7        30.25S WCI  16
MOSINEE        CLOUDY    25  23  93 N5        30.26S WCI  19
MARSHFIELD     CLOUDY    21  16  81 NW8       30.25F WCI  11
STEVENS POINT  CLOUDY    20  17  85 CALM      30.26F
WAUPACA        CLOUDY    25  18  76 W3        30.28S
WAUTOMA        CLOUDY    22  16  78 NW5       30.27F WCI  16
WISC RAPIDS    CLOUDY    20  14  77 NW3       30.28F
CAMP DOUGLAS   CLOUDY    20  19  95 NW5       30.28F WCI  13
$$

WIZ011>013-019>022-031-037>040-048>050-180900-
NORTHEAST WISCONSIN

CITY           SKY/WX    TMP DP  RH WIND       PRES   REMARKS
ANTIGO         CLOUDY    22  20  91 N3        30.24R
SHAWANO        CLOUDY    28  22  79 W5        30.28R WCI  23
OCONTO         CLOUDY    27  24  86 NW3       30.27R
STURGEON BAY   CLOUDY    28  21  74 N10       30.26R WCI  19
GREEN BAY      CLOUDY    27  22  81 NW6       30.28R WCI  20
MANITOWOC      CLOUDY    26  22  84 W8        30.26S WCI  18
APPLETON       CLOUDY    25  19  80 W8        30.27S WCI  16
CLINTONVILLE   CLOUDY    27  21  80 NW6       30.28R WCI  20
OSHKOSH        CLOUDY    23  17  78 NW9       30.26F WCI  13
$$

WIZ032>034-041-042-053>061-180900-
SOUTHWEST WISCONSIN

CITY           SKY/WX    TMP DP  RH WIND       PRES   REMARKS
LA CROSSE      CLOUDY    20  14  77 NW3       30.32S
SPARTA         CLOUDY    20  14  77 CALM      30.30S
VIROQUA        CLOUDY    15  14  92 W3        30.26R
BOSCOBEL       CLEAR     13  10  88 CALM      30.31F
PRAIRIE DU CHI CLEAR     16  13  87 CALM      30.31S
PLATTEVILLE    CLEAR     17  14  89 CALM      30.28S
$$

WIZ056-057-062-063-064-067-068-180900-
SOUTH CENTRAL WISCONSIN

CITY           SKY/WX    TMP DP  RH WIND       PRES   REMARKS
REEDSBURG      CLOUDY    19  15  85 CALM      30.27S
BARABOO/DELLS  CLOUDY    19  15  84 CALM      30.27S
LONE ROCK      CLEAR     19  12  74 CALM      30.30F
MINERAL POINT  CLEAR     18  14  86 N3        30.26R
MADISON        CLEAR     17  13  84 CALM      30.27F
MIDDLETON      CLEAR     18  14  82 W3        30.28S
WATERTOWN      CLOUDY    18  15  89 CALM      30.27S
MONROE         CLEAR     19  16  86 N3        30.25S
JANESVILLE     CLEAR     19  16  86 CALM      30.28S
$$

WIZ051-052-058>065-066-070>072-180900-
SOUTHEAST WISCONSIN

CITY           SKY/WX    TMP DP  RH WIND       PRES   REMARKS
MILWAUKEE      CLEAR     20  13  74 W8        30.27R WCI  10
WAUKESHA       CLEAR     18  14  86 W6        30.28R WCI   9
MILWAUKEE/TIMM CLEAR     19  14  79 W6        30.28R WCI  11
RACINE         CLEAR     19  13  77 W6        30.29S WCI  11
BURLINGTON     CLEAR     17  13  84 W3        30.28R
KENOSHA        MOCLDY    19  14  81 W7        30.28R WCI  10
FOND DU LAC    CLOUDY    23  16  74 CALM      30.27S
SHEBOYGAN      CLOUDY    24  17  74 NW9       30.25F WCI  14
WEST BEND      CLOUDY    23  18  80 NW5       30.25S WCI  17
JUNEAU         CLOUDY    20  16  83 CALM      30.27S
$$

LSZ147-162-180900-
LAKE SUPERIOR

STATION/POSITION TIME  TEMP    WIND        PRES    WAVE
                       AIR SEA DIR/SP/G            HT/PER
                 (UTC) (F)     (DEG/KT/KT) (MB)    (FT/S)
DEVILS ISLAND    0800   26      90/  6/  8 1028.3R
PORT WING        0740   24     210/  4/  6 1027.1S
SAXON HARBOR     0700   25        CALM     1026.1S
$$

LMZ867-665-643>646-180900-
LAKE MICHIGAN

STATION/POSITION TIME  TEMP    WIND        PRES    WAVE
                       AIR SEA DIR/SP/G            HT/PER
                 (UTC) (F)     (DEG/KT/KT) (MB)    (FT/S)
CHAMBERS ISLAND  0700   29     340/ 15/ 19 1023.7R
NORTHPORT PIER   0700   29     340/ 15/ 19 1023.4R
SISTER BAY       0728          360/ 20/ 22   N/A
ALGOMA LAKESHORE 0714          330/  7/  9   N/A
KEWAUNEE LAKESHO 0700   27     310/  4/  8 1023.2R
SHEBOYGAN LAKESH 0800   24 34  300/ 10/ 13 1025.8F
PORT WASHINGTON  0700   22     300/  6/ 10 1025.4S
MILWAUKEE LAKESH 0700   21     300/  9/ 12   N/A
KENOSHA   LAKESH 0800   20     280/  8/ 13 1025.4R
$$

TC  - TEMPERATURE IN CELSIUS
VSB - VISIBILITY IN STATUTE MILES
WCI - WIND CHILL INDEX
HX  - HEAT INDEX



USA.gov is the U.S. government's official web portal to all federal, state and local government web resources and services.